{"data":{"norad_id":59174,"epoch":"2026-09-20T22:00:03.000096Z","epoch_age_seconds":122802,"freshness":"FRESH","line1":"1 59174U 24044Y   26263.91670139  .00032532  00000+0  11867-2 0  9994","line2":"2 59174  43.0043  37.5720 0001890 274.6513 149.4059 15.27573654  5868","mean_motion":15.27573654,"eccentricity":0.000189,"inclination_deg":43.0043,"raan_deg":37.572,"arg_perigee_deg":274.6513,"mean_anomaly_deg":149.4059,"bstar":0.0011867,"rev_number":586,"period_min":94.267140326053,"perigee_km":481.77133054882,"apogee_km":484.36486607598,"semimajor_km":6861.2050983124,"source":"CELESTRAK","updated_at":"2026-09-21T09:00:34.061281Z"}}